Погода Брохово

Погода Брохово : погода сейчас, прогноз погоды и архив. Всё, что Вы хотите узнать о погоде Брохово!

Поиск расширенной информации на нашем сайте:

Другие новости

Новости СМИ2

Главная страница сайта

Новости сайта

03.07.2017

Напоминаем, что на нашем специализированном сайте Метеоцентр.Азия вы можете получить высокодетализированные автоматические прогнозы погоды по пунктам России, СНГ и мира в авиационном формате (включающие направление и скорость ветра, видимость, явления погоды, количество и форму облачности, нижнюю и верхнюю границу облачности).


Погода Брохово - сегодня

Время (UTC), дата Ветер
(°,м/с) 
Видим.   Явления Облачность Т
(°С)
Тd
(°С)
f(%) Тe
(°С)
Pmin
(гПа)
dP
(гПа)
Po
(мм)
O2
(г/м3)
Тmin Tmax R s Состояние
почвы
15 16.08.18 310 (СЗ) 20000 м    ясно 
+8 +6.9 93 +8  1014.6  -0.9  760  297           
18 16.08.18 280 (З) 20000 м    8/0 средняя 
[Ac trans]
+6.6 +6.6 100 +6  1014.6  761  298           
03 17.08.18 110 (В) 20000 м    ясно 
+13.9 +13 94 +18  1013.3  -1  759  289           
06 17.08.18 200 (Ю) 8-10{11}  20000 м    ясно 
+15.4 +11.5 78 +17  1012.3  -0.9  759  287           
09 17.08.18 190 (Ю) 8-10{12}  20000 м    3/0 верхняя 
[Ci fib]
+12.4 +12 97 +15  1012.8  0.5  759  290    +16.2       
12 17.08.18 200 (Ю) 7{11}  20000 м    3/0 верхняя 
[Ci fib]
+9.8 +8.6 92 +8  1013.7  0.8  760  294           
15 17.08.18 220 (ЮЗ) 20000 м    3/0 верхняя 
[Ci fib]
+9.2 +8.2 93 +8  1013.9  0.2  760  295           
18 17.08.18 200 (Ю) 10 км  дымка  9/8 300 м средняя 
[St|Ac trans]
+9.5 +9.1 97 +9  1014.3  0.4  760  294           
00 18.08.18 080 (В) 20000 м    10/10 600 м 
[Sc]
+12.6 +11.5 93 +17  1014.7  0.2  761  291           
03 18.08.18 060 (СВ) 20000 м    10/10 600 м 
[Sc]
+13.3 +12.2 93 +18  1014.1  -0.6  760  290           
06 18.08.18 060 (СВ) 20000 м    9/5 1000 м средняя 
[Sc|Ac trans]
+14 +12.7 92 +19  1013.1  -1  759  289           
12 18.08.18 050 (СВ) 20000 м    10/10 600 м 
[Sc]
+11.4 +10.4 94 +12  1012.6  0.2  759  292           
15 18.08.18 050 (СВ) 20000 м    10/10 1000 м 
[Sc]
+11.2 +10.2 94 +12  1012.2  -0.4  759  292           
18 18.08.18 040 (СВ) 20000 м    10/10 300 м 
[St]
+11.3 +10.5 95 +13  1010.9  -1.3  758  291           
00 19.08.18 030 (СВ) 20000 м    10/10 600 м 
[Sc]
+12.5 +11.6 94 +15  1009.2  -1.4  756  289           
03 19.08.18 040 (СВ) 20000 м    8/3 600 м верхняя 
[Sc|Ci fib]
+14 +12.8 92 +18  1006.7  -2.4  755  287           
06 19.08.18 030 (СВ) 20000 м    8/0 верхняя 
[Ci fib]
+14.1 +12.1 88 +17  1003.9  -2.9  752  286           
09 19.08.18 040 (СВ) 8-11{12}  20000 м    9/0 верхняя 
[Ci fib]
+13.1 +11.4 89 +15  1002.2  -1.6  751  287    +14.4       
21 19.08.18 020 (С) 7-10{13}  20000 м    9/0 средняя 
[Ac trans]
+13.7 +13.2 97 +19  1000.3  750  285  +12.7        сухая 
03 20.08.18 020 (С) 6{11}  20000 м    ясно 
+17.1 +7.1 52 +17  1000.5  0.2  750  283           
09 20.08.18 340 (С) 10-14{16}  20000 м    4/0 средняя, верхняя 
[Ac trans|Ci fib]
+13.3 +3.9 53 +12  1002.5  1.4  751  288    +17.6       
12 20.08.18 330 (СЗ) 9-11{17}  20000 м    ясно 
+10.3 +3 60 +8  1003.8  1.2  752  292           
15 20.08.18 310 (СЗ) 7{11}  20000 м    ясно 
+7.8 +3.3 73 +6  1003.1  -0.6  752  294           
18 20.08.18 300 (СЗ) 9-12{13}  20000 м    ясно 
+8.2 +2.7 68 +5  1002.9  -0.2  752  294           
21 20.08.18 310 (СЗ) 7-11{13}  20000 м    3/0 средняя 
[Ac trans]
+10.9 +3.2 59 +9  1003.2  0.2  752  291  +7.6        сухая 
Время (UTC), дата Ветер
(°,м/с) 
Видим.   Явления Облачность Т
(°С)
Тd
(°С)
f(%) Тe
(°С)
Pmin
(гПа)
dP
(гПа)
Po
(мм)
O2
(г/м3)
Тmin Tmax R s Состояние
почвы

Для получения пояснительной информации подведите курсор к названию столбца.

ПОГОДА Брохово - архив

Всё, что Вы хотите узнать о погоде Брохово - удобно и подробно!

Выберите нужную дату (начиная с 1 января 2015* года) и нажмите кнопку "Найти".
Будут отображены архивные сводки погоды по пункту Брохово, начиная с указанной даты.


Отображать данные в формате CSV (для использования в таблицах Excel)


Внимание! Наш архив погоды предназначен исключительно для личного некоммерческого использования в познавательных целях. Если Вам необходимы официальные справки о состоянии погоды (для производственных, юридических, коммерческих и т.п. целей), обращайтесь в органы Росгидромета.

*Примечание: данная дата относится к архиву по метеостанциям СССР (Россия, СНГ, Балтия).
Архив по метеостанциям Зарубежной Европы и Азии (кроме Китая) хранится 10 дней, по другим регионам земного шара (Китай, Африка, Америка, Австралия, Океания) - 1 день.

Брохово - район местоположения метеостанции


Название, широта, долгота, высота метеостанции:
Брохово 59.7°ш. 154.3°д. 5 м над ур. моря [Российская Федерация]

Дополнительная информация

В oтличие oт бoльшинства пoгoдных сайтoв мы публикуем пoдрoбную метеoинфoрмацию в детальнoм прoфессиoнальнoм фoрмате.

Характеристики температуры и влажнoсти вoздуха измеряются на высoте 2 м в тени вдали oт зданий и деревьев.
Скoрoсть ветра измеряется на высoте 10 м (на урoвне рoста челoвека скoрoсть ветра ниже в 1.5-2 раза). Если метеoстанция нахoдится в гoрoде или в лесу, тo скoрoсть ветра занижена на 2-4 м/с пo сравнению с oткрытым местoм. Скoрoсть ветра над акватoриями крупных рек и oзёр, а также на вершинах хoлмoв на 2-5 м/с выше, чем в oбычных услoвиях.
Атмoсфернoе давление в разных тoчках местнoсти мoжет значительнo oтличаться oт давления на метеoстанции, в зависимoсти oт услoвий рельефа (при пoдъёме на 10 м давление пoнижается примернo на 1 мм рт.ст.).